Location: Newark
(54.1833°N, 11.0667°E)
Time: 14:16:06
(UTC+00:00)

N. Korean satellite - Visible Passes

Search period start: 20 January 2020 00:00
Search period end: 30 January 2020 00:00
Orbit: 454 x 508 km, 97.2° (Epoch: 19 January)

Date Brightness Start Highest point End Pass type
(mag) Time Alt. Az. Time Alt. Az. Time Alt. Az.
20 Jan 8.3 04:43:02 10° NNE 04:46:16 33° E 04:49:31 10° SSE visible
20 Jan 7.5 06:16:38 10° N 06:19:34 25° WNW 06:22:31 10° WSW visible
20 Jan 9.3 16:58:50 10° SW 17:01:33 22° W 17:04:19 10° NW visible
21 Jan 9.3 04:18:00 10° NE 04:20:35 19° E 04:23:12 10° SE visible
21 Jan 6.8 05:50:49 10° N 05:54:12 44° WNW 05:57:35 10° SW visible
21 Jan 8.0 16:32:39 10° S 16:35:54 40° W 16:39:11 10° NNW visible
22 Jan 10.1 03:53:52 10° ENE 03:54:50 11° E 03:55:48 10° ESE visible
22 Jan 6.4 05:25:13 10° NNE 05:28:44 84° WNW 05:32:19 10° SSW visible
23 Jan 7.4 04:59:45 10° NNE 05:03:13 51° E 05:06:43 10° S visible
23 Jan 8.0 06:33:50 10° NNW 06:36:19 18° WNW 06:38:50 10° WSW visible
23 Jan 9.7 17:16:30 10° SW 17:18:35 15° W 17:20:40 10° NW visible
24 Jan 8.7 04:34:29 10° NE 04:37:36 28° E 04:40:44 10° SSE visible
24 Jan 7.3 06:07:51 10° N 06:11:00 30° WNW 06:14:10 10° SW visible
24 Jan 8.9 16:49:54 10° SSW 16:52:52 27° W 16:55:51 10° NW visible
25 Jan 9.6 04:09:36 10° NE 04:11:54 16° E 04:14:13 10° SE visible
25 Jan 6.6 05:42:07 10° N 05:45:36 54° WNW 05:49:07 10° SSW visible
25 Jan 7.5 16:23:53 10° S 16:27:13 50° W 16:30:36 10° NNW visible
26 Jan 6.6 05:16:32 10° NNE 05:20:07 80° ESE 05:23:44 10° S visible
26 Jan 10.3 17:35:06 10° W 17:35:38 10° W 17:36:10 10° WNW visible
27 Jan 7.9 04:51:08 10° NNE 04:54:33 41° E 04:58:00 10° S visible
27 Jan 7.8 06:24:58 10° NNW 06:27:45 22° WNW 06:30:34 10° WSW visible
27 Jan 9.6 17:07:23 10° SW 17:09:50 18° W 17:12:20 10° NW visible
28 Jan 9.0 04:25:58 10° NE 04:28:54 23° E 04:31:53 10° SSE visible
28 Jan 7.1 05:59:05 10° N 06:02:24 37° WNW 06:05:46 10° SW visible
28 Jan 8.5 16:41:01 10° SSW 16:44:08 32° W 16:47:19 10° NNW visible
29 Jan 9.9 04:01:16 10° NE 04:03:10 14° E 04:05:05 10° ESE visible
29 Jan 6.5 05:33:24 10° N 05:36:59 68° WNW 05:40:35 10° SSW visible
